Regional Weather Roundup
Issued by NWS

Home | Current Version | Previous Version | Text Only | Print | Product List | Glossary Off
Versions: 1 2 3 4 5 6 7 8 9 10 11 12 13 14 15 16 17 18 19 20 21 22 23 24 25 26 27 28 29 30 31 32 33 34 35 36 37 38 39 40 41 42 43 44 45 46 47 48 49 50

000
ASUS43 KMKX 210000
RWRWI

WISCONSIN REGIONAL WEATHER ROUNDUP
NATIONAL WEATHER SERVICE MILWAUKEE/SULLIVAN WI
700 PM CDT MON OCT 20 2014

NOTE: "FAIR" INDICATES FEW OR NO CLOUDS BELOW 12,000 FEET WITH NO
SIGNIFICANT WEATHER AND/OR OBSTRUCTIONS TO VISIBILITY.

WIZ001-002-006>008-014>016-023>028-210100-
NORTHWEST WISCONSIN

CITY           SKY/WX    TMP DP  RH WIND       PRES   REMARKS
SUPERIOR ARPT  CLOUDY    48  38  68 N7        30.07R
ASHLAND        CLOUDY    49  39  68 N6        30.07R
6HR MIN TEMP:  49; 6HR MAX TEMP:  55;

HAYWARD        CLOUDY    50  40  68 VRB7      30.05R
6HR MIN TEMP:  50; 6HR MAX TEMP:  53;

SIREN          CLOUDY    50  38  62 N5        30.05S
CUMBERLAND     CLOUDY    50  37  62 N6        30.04R
RICE LAKE      CLOUDY    51  39  63 NW6       30.05R
CHETEK         CLOUDY    50  40  68 CALM      30.03S
LADYSMITH      CLOUDY    50  41  71 NW3       30.04R
EAU CLAIRE     NOT AVBL
MENOMONIE      MOCLDY    53  39  60 NE5       30.03R
NEW RICHMOND   PTCLDY    51  40  63 N7        30.04R
OSCEOLA        CLEAR     52  40  64 N7        30.06R
$$

WIZ003>005-009-010-017-018-210100-
NORTH CENTRAL WISCONSIN

CITY           SKY/WX    TMP DP  RH WIND       PRES   REMARKS
MANITOWISH WTR CLOUDY    43  43  99 N5        30.01R
ARBOR VITAE    CLOUDY    45  41  88 N6        30.01R
WOODRUFF       CLOUDY    45  41  88 N6        30.01R
RHINELANDER    CLOUDY    44  40  85 N8        30.02R
6HR MIN TEMP:  43; 6HR MAX TEMP:  48; 6HR PCP:  0.03;

EAGLE RIVER    LGT RAIN  43  41  92 N5        30.00R
LAND O LAKES   DRIZZLE   44  41  89 N8        30.01R
PHILLIPS       CLOUDY    47  39  73 CALM      30.01R
TOMAHAWK       CLOUDY    46  40  79 CALM      30.01R
MEDFORD        CLOUDY    47  39  74 N3        30.01R
MERRILL        MOCLDY    47  40  76 N5        30.00R
$$

WIZ029-030-035-036-043>047-210100-
CENTRAL WISCONSIN

CITY           SKY/WX    TMP DP  RH WIND       PRES   REMARKS
WAUSAU         CLOUDY    49  40  71 NW5       30.00R
6HR MIN TEMP:  49; 6HR MAX TEMP:  52;

MOSINEE        NOT AVBL
MARSHFIELD     CLOUDY    50  41  71 N5        30.01R
6HR MIN TEMP:  50; 6HR MAX TEMP:  55;

STEVENS POINT  CLOUDY    48  39  69 NW6       30.00R
WAUPACA        CLOUDY    53  43  68 NW5       29.99R
WAUTOMA        NOT AVBL
WISC RAPIDS    CLOUDY    51  40  65 N5        30.02R
6HR MIN TEMP:  51; 6HR MAX TEMP:  56;

CAMP DOUGLAS   NOT AVBL
$$

WIZ011>013-019>022-031-037>040-048>050-210100-
NORTHEAST WISCONSIN

CITY           SKY/WX    TMP DP  RH WIND       PRES   REMARKS
ANTIGO         CLOUDY    45  41  86 N13G18    29.99R
SHAWANO        CLOUDY    52  42  68 N7        29.98R
OCONTO         CLOUDY    48  44  85 NW5       29.97R
STURGEON BAY   CLOUDY    48  39  71 N17G23    29.97R
6HR MIN TEMP:  48; 6HR MAX TEMP:  52;

GREEN BAY      LGT RAIN  49  45  86 N6        29.98R
6HR MIN TEMP:  49; 6HR MAX TEMP:  55; 6HR PCP:  0.01;

MANITOWOC      NOT AVBL
APPLETON       CLOUDY    50  43  76 NW8       29.98R
CLINTONVILLE   CLOUDY    50  43  76 NW7       29.98R
OSHKOSH        CLOUDY    51  44  77 NW7       29.98R
6HR MIN TEMP:  51; 6HR MAX TEMP:  54;

$$

WIZ032>034-041-042-053>061-210100-
SOUTHWEST WISCONSIN

CITY           SKY/WX    TMP DP  RH WIND       PRES   REMARKS
LA CROSSE      PTCLDY    56  40  55 N8        30.00R
6HR MIN TEMP:  55; 6HR MAX TEMP:  67;

SPARTA         PTCLDY    53  37  55 N3        30.01R
VIROQUA        CLEAR     49  40  70 N5        29.99R
BOSCOBEL       PTCLDY    57  41  55 NE3       29.99R
6HR MIN TEMP:  57; 6HR MAX TEMP:  67;

PRAIRIE DU CHI CLEAR     58  39  50 CALM      29.97R
PLATTEVILLE    CLEAR     54  42  64 N5        29.98R
$$

WIZ056-057-062-063-064-067-068-210100-
SOUTH CENTRAL WISCONSIN

CITY           SKY/WX    TMP DP  RH WIND       PRES   REMARKS
REEDSBURG      MOCLDY    52  39  61 N6        29.99R
BARABOO/DELLS  CLOUDY    54  37  53 N3        29.99R
LONE ROCK      NOT AVBL
MINERAL POINT  MOCLDY    55  37  50 N7        29.97R
MADISON        CLOUDY    53  41  63 N3        29.99R
6HR MIN TEMP:  53; 6HR MAX TEMP:  62;

MIDDLETON      CLOUDY    55  42  63 CALM      29.99R
WATERTOWN      CLOUDY    51  42  71 NW5       29.98R
MONROE         MOCLDY    52  43  71 N6        29.97R
JANESVILLE     CLOUDY    55  39  54 N8        29.97R
$$

WIZ051-052-058>065-066-070>072-210100-
SOUTHEAST WISCONSIN

CITY           SKY/WX    TMP DP  RH WIND       PRES   REMARKS
MILWAUKEE      CLOUDY    53  42  66 NW8       29.96R
6HR MIN TEMP:  53; 6HR MAX TEMP:  60;

WAUKESHA       CLOUDY    50  41  71 NW12      29.98R
MILWAUKEE/TIMM CLOUDY    52  41  66 NW7       29.97R
RACINE         CLOUDY    53  42  66 NW3       29.98R
6HR MIN TEMP:  52; 6HR MAX TEMP:  59; 6HR PCP: TRACE;

BURLINGTON     CLOUDY    51  42  71 NW7       29.97R
KENOSHA        CLOUDY    53  43  68 NW7       29.97R
6HR MIN TEMP:  53; 6HR MAX TEMP:  63;

FOND DU LAC    CLOUDY    51  42  71 NW8       29.98R
6HR MIN TEMP:  51; 6HR MAX TEMP:  54;

SHEBOYGAN      CLOUDY    49  44  83 N5        29.98R
6HR MIN TEMP:  49; 6HR MAX TEMP:  54; 6HR PCP: TRACE;

WEST BEND      CLOUDY    50  41  71 NW9       29.97R
JUNEAU         CLOUDY    50  41  71 NW3       29.99R
$$

LSZ147-162-210100-
LAKE SUPERIOR

STATION/POSITION TIME  TEMP    WIND        PRES    WAVE
                       AIR SEA DIR/SP/G            HT/PER
                 (UTC) (F)     (DEG/KT/KT) (MB)    (FT/S)
W MID LAKE BUOY  2250   46 46   20/  6/  6 1017.2R   1
DEVILS ISLAND    2300   50     330/ 10/ 12 1017.6R
PORT WING        2340   50     350/  9/ 11 1017.9R
SAXON HARBOR     2300   50     340/  5/  6 1016.9R
$$

LMZ867-665-643>646-210100-
LAKE MICHIGAN

STATION/POSITION TIME  TEMP    WIND        PRES    WAVE
                       AIR SEA DIR/SP/G            HT/PER
                 (UTC) (F)     (DEG/KT/KT) (MB)    (FT/S)
CHAMBERS ISLAND  2300   50     330/ 14/ 19 1014.2R
N MID LAKE BUOY  2250   47 51  330/ 21/ 23 1012.8R   4/ 5
NORTHPORT PIER   2300   49     340/ 19/ 24 1013.9R
SISTER BAY       2328          350/ 18/ 23   N/A
KEWAUNEE LAKESHO 2300   50     310/  5/  8 1012.8R
SHEBOYGAN LAKESH 2300   52 50  350/  7/  7 1014.3R
PORT WASHINGTON  2300   54     320/  4/  7 1014.6
ATWATER BUOY     2300   54     300/  8/ 10 1014.9R
MILWAUKEE LAKESH 2300   54     320/  6/ 11   N/A
S MID LAKE BUOY  2250   53 55  340/ 17/ 19 1013.2R   3/ 4
KENOSHA   LAKESH 2300   53     330/  9/ 11 1013.9R
$$

TC  - TEMPERATURE IN CELSIUS
VSB - VISIBILITY IN STATUTE MILES
WCI - WIND CHILL INDEX
HX  - HEAT INDEX



USA.gov is the U.S. government's official web portal to all federal, state and local government web resources and services.